site,time,unit,value
Wadebridge,2024-04-15T00:05:00+01:00,MW,0.7260000000000002
Wadebridge,2024-04-15T00:10:00+01:00,MW,0.7269999999999999
Wadebridge,2024-04-15T00:15:00+01:00,MW,0.9300000000000002
Wadebridge,2024-04-15T00:20:00+01:00,MW,1.08
Wadebridge,2024-04-15T00:25:00+01:00,MW,1.0709999999999997
Wadebridge,2024-04-15T00:30:00+01:00,MW,1.6980000000000002
Wadebridge,2024-04-15T00:35:00+01:00,MW,1.011
Wadebridge,2024-04-15T00:40:00+01:00,MW,1.737
Wadebridge,2024-04-15T00:45:00+01:00,MW,2.282
Wadebridge,2024-04-15T00:50:00+01:00,MW,2.2910000000000004
Wadebridge,2024-04-15T00:55:00+01:00,MW,1.1589999999999998
Wadebridge,2024-04-15T01:00:00+01:00,MW,1.375
Wadebridge,2024-04-15T01:05:00+01:00,MW,0.7630000000000001
Wadebridge,2024-04-15T01:10:00+01:00,MW,0.631
Wadebridge,2024-04-15T01:15:00+01:00,MW,0.31600000000000006
Wadebridge,2024-04-15T01:20:00+01:00,MW,0.5409999999999999
Wadebridge,2024-04-15T01:25:00+01:00,MW,0.6980000000000002
Wadebridge,2024-04-15T01:30:00+01:00,MW,0.42600000000000016
Wadebridge,2024-04-15T01:35:00+01:00,MW,1.0630000000000002
Wadebridge,2024-04-15T01:40:00+01:00,MW,1.2789999999999997
Wadebridge,2024-04-15T01:45:00+01:00,MW,0.9989999999999999
Wadebridge,2024-04-15T01:50:00+01:00,MW,1.1570000000000003
Wadebridge,2024-04-15T01:55:00+01:00,MW,1.0649999999999997
Wadebridge,2024-04-15T02:00:00+01:00,MW,1.0030000000000001
Wadebridge,2024-04-15T02:05:00+01:00,MW,1.2869999999999995
Wadebridge,2024-04-15T02:10:00+01:00,MW,1.1169999999999995
Wadebridge,2024-04-15T02:15:00+01:00,MW,1.3599999999999999
Wadebridge,2024-04-15T02:20:00+01:00,MW,1.742
Wadebridge,2024-04-15T02:25:00+01:00,MW,1.8560000000000003
Wadebridge,2024-04-15T02:30:00+01:00,MW,1.8330000000000002
Wadebridge,2024-04-15T02:35:00+01:00,MW,1.6779999999999997
Wadebridge,2024-04-15T02:40:00+01:00,MW,1.4510000000000003
Wadebridge,2024-04-15T02:45:00+01:00,MW,1.5260000000000002
Wadebridge,2024-04-15T02:50:00+01:00,MW,1.8359999999999999
Wadebridge,2024-04-15T02:55:00+01:00,MW,1.4689999999999999
Wadebridge,2024-04-15T03:00:00+01:00,MW,1.75
Wadebridge,2024-04-15T03:05:00+01:00,MW,1.8350000000000002
Wadebridge,2024-04-15T03:10:00+01:00,MW,1.8579999999999997
Wadebridge,2024-04-15T03:15:00+01:00,MW,2.034
Wadebridge,2024-04-15T03:20:00+01:00,MW,1.5909999999999997
Wadebridge,2024-04-15T03:25:00+01:00,MW,2.162
Wadebridge,2024-04-15T03:30:00+01:00,MW,2.0209999999999995
Wadebridge,2024-04-15T03:35:00+01:00,MW,2.1609999999999996
Wadebridge,2024-04-15T03:40:00+01:00,MW,2.261
Wadebridge,2024-04-15T03:45:00+01:00,MW,2.207
Wadebridge,2024-04-15T03:50:00+01:00,MW,2.3649999999999998
Wadebridge,2024-04-15T03:55:00+01:00,MW,2.266
Wadebridge,2024-04-15T04:00:00+01:00,MW,2.559
Wadebridge,2024-04-15T04:05:00+01:00,MW,2.507
Wadebridge,2024-04-15T04:10:00+01:00,MW,2.489
Wadebridge,2024-04-15T04:15:00+01:00,MW,2.593
Wadebridge,2024-04-15T04:20:00+01:00,MW,2.649
Wadebridge,2024-04-15T04:25:00+01:00,MW,2.662
Wadebridge,2024-04-15T04:30:00+01:00,MW,2.5229999999999997
Wadebridge,2024-04-15T04:35:00+01:00,MW,2.495
Wadebridge,2024-04-15T04:40:00+01:00,MW,2.6499999999999995
Wadebridge,2024-04-15T04:45:00+01:00,MW,2.6390000000000002
Wadebridge,2024-04-15T04:50:00+01:00,MW,2.716
Wadebridge,2024-04-15T04:55:00+01:00,MW,2.6670000000000003
Wadebridge,2024-04-15T05:00:00+01:00,MW,2.6240000000000006
Wadebridge,2024-04-15T05:05:00+01:00,MW,2.627
Wadebridge,2024-04-15T05:10:00+01:00,MW,2.602
Wadebridge,2024-04-15T05:15:00+01:00,MW,2.6329999999999996
Wadebridge,2024-04-15T05:20:00+01:00,MW,2.693
Wadebridge,2024-04-15T05:25:00+01:00,MW,2.643
Wadebridge,2024-04-15T05:30:00+01:00,MW,2.5120000000000005
Wadebridge,2024-04-15T05:35:00+01:00,MW,2.511
Wadebridge,2024-04-15T05:40:00+01:00,MW,2.527
Wadebridge,2024-04-15T05:45:00+01:00,MW,2.479
Wadebridge,2024-04-15T05:50:00+01:00,MW,2.425
Wadebridge,2024-04-15T05:55:00+01:00,MW,2.2560000000000002
Wadebridge,2024-04-15T06:00:00+01:00,MW,2.083
Wadebridge,2024-04-15T06:05:00+01:00,MW,2.018
Wadebridge,2024-04-15T06:10:00+01:00,MW,1.7940000000000003
Wadebridge,2024-04-15T06:15:00+01:00,MW,1.7930000000000001
Wadebridge,2024-04-15T06:20:00+01:00,MW,1.789
Wadebridge,2024-04-15T06:25:00+01:00,MW,1.8190000000000002
Wadebridge,2024-04-15T06:30:00+01:00,MW,1.8699999999999997
Wadebridge,2024-04-15T06:35:00+01:00,MW,1.7929999999999997
Wadebridge,2024-04-15T06:40:00+01:00,MW,1.5169999999999997
Wadebridge,2024-04-15T06:45:00+01:00,MW,1.4540000000000004
Wadebridge,2024-04-15T06:50:00+01:00,MW,1.0799999999999998
Wadebridge,2024-04-15T06:55:00+01:00,MW,1.0570000000000002
Wadebridge,2024-04-15T07:00:00+01:00,MW,0.9810000000000001
Wadebridge,2024-04-15T07:05:00+01:00,MW,0.9259999999999999
Wadebridge,2024-04-15T07:10:00+01:00,MW,0.8250000000000004
Wadebridge,2024-04-15T07:15:00+01:00,MW,0.6700000000000002
Wadebridge,2024-04-15T07:20:00+01:00,MW,0.631
Wadebridge,2024-04-15T07:25:00+01:00,MW,0.48499999999999943
Wadebridge,2024-04-15T07:30:00+01:00,MW,0.2679999999999998
Wadebridge,2024-04-15T07:35:00+01:00,MW,0.34199999999999964
Wadebridge,2024-04-15T07:40:00+01:00,MW,0.30799999999999983
Wadebridge,2024-04-15T07:45:00+01:00,MW,0.6899999999999995
Wadebridge,2024-04-15T07:50:00+01:00,MW,0.43699999999999983
Wadebridge,2024-04-15T07:55:00+01:00,MW,0.3060000000000005
Wadebridge,2024-04-15T08:00:00+01:00,MW,0.2739999999999996
Wadebridge,2024-04-15T08:05:00+01:00,MW,0.18900000000000006
Wadebridge,2024-04-15T08:10:00+01:00,MW,0.09099999999999975
Wadebridge,2024-04-15T08:15:00+01:00,MW,0.45199999999999996
Wadebridge,2024-04-15T08:20:00+01:00,MW,0.5060000000000007
Wadebridge,2024-04-15T08:25:00+01:00,MW,0.5050000000000003
Wadebridge,2024-04-15T08:30:00+01:00,MW,0.3120000000000003
Wadebridge,2024-04-15T08:35:00+01:00,MW,0.524
Wadebridge,2024-04-15T08:40:00+01:00,MW,1.1080000000000003
Wadebridge,2024-04-15T08:45:00+01:00,MW,1.52
Wadebridge,2024-04-15T08:50:00+01:00,MW,1.0960000000000003
Wadebridge,2024-04-15T08:55:00+01:00,MW,0.8300000000000001
Wadebridge,2024-04-15T09:00:00+01:00,MW,0.5599999999999996
Wadebridge,2024-04-15T09:05:00+01:00,MW,0.5549999999999997
Wadebridge,2024-04-15T09:10:00+01:00,MW,0.7480000000000002
Wadebridge,2024-04-15T09:15:00+01:00,MW,0.7240000000000002
Wadebridge,2024-04-15T09:20:00+01:00,MW,0.9710000000000001
Wadebridge,2024-04-15T09:25:00+01:00,MW,1.2069999999999996
Wadebridge,2024-04-15T09:30:00+01:00,MW,1.2660000000000005
Wadebridge,2024-04-15T09:35:00+01:00,MW,1.1250000000000002
Wadebridge,2024-04-15T09:40:00+01:00,MW,0.9010000000000005
Wadebridge,2024-04-15T09:45:00+01:00,MW,1.0749999999999997
Wadebridge,2024-04-15T09:50:00+01:00,MW,1.1820000000000002
Wadebridge,2024-04-15T09:55:00+01:00,MW,1.5419999999999998
Wadebridge,2024-04-15T10:00:00+01:00,MW,1.4870000000000005
Wadebridge,2024-04-15T10:05:00+01:00,MW,1.8830000000000002
Wadebridge,2024-04-15T10:10:00+01:00,MW,3.2430000000000003
Wadebridge,2024-04-15T10:15:00+01:00,MW,5.4190000000000005
Wadebridge,2024-04-15T10:20:00+01:00,MW,4.45
Wadebridge,2024-04-15T10:25:00+01:00,MW,2.7959999999999994
Wadebridge,2024-04-15T10:30:00+01:00,MW,2.701
Wadebridge,2024-04-15T10:35:00+01:00,MW,2.8759999999999994
Wadebridge,2024-04-15T10:40:00+01:00,MW,2.9350000000000005
Wadebridge,2024-04-15T10:45:00+01:00,MW,3.3870000000000005
Wadebridge,2024-04-15T10:50:00+01:00,MW,4.474
Wadebridge,2024-04-15T10:55:00+01:00,MW,4.742000000000001
Wadebridge,2024-04-15T11:00:00+01:00,MW,4.51
Wadebridge,2024-04-15T11:05:00+01:00,MW,4.577
Wadebridge,2024-04-15T11:10:00+01:00,MW,5.035
Wadebridge,2024-04-15T11:15:00+01:00,MW,5.644
Wadebridge,2024-04-15T11:20:00+01:00,MW,4.5649999999999995
Wadebridge,2024-04-15T11:25:00+01:00,MW,4.827
Wadebridge,2024-04-15T11:30:00+01:00,MW,6.565
Wadebridge,2024-04-15T11:35:00+01:00,MW,6.0169999999999995
Wadebridge,2024-04-15T11:40:00+01:00,MW,6.868
Wadebridge,2024-04-15T11:45:00+01:00,MW,7.898999999999999
Wadebridge,2024-04-15T11:50:00+01:00,MW,8.248
Wadebridge,2024-04-15T11:55:00+01:00,MW,8.292
Wadebridge,2024-04-15T12:00:00+01:00,MW,8.399
Wadebridge,2024-04-15T12:05:00+01:00,MW,7.800999999999999
Wadebridge,2024-04-15T12:10:00+01:00,MW,7.476
Wadebridge,2024-04-15T12:15:00+01:00,MW,7.2250000000000005
Wadebridge,2024-04-15T12:20:00+01:00,MW,7.933000000000001
Wadebridge,2024-04-15T12:25:00+01:00,MW,8.482000000000001
Wadebridge,2024-04-15T12:30:00+01:00,MW,8.296
Wadebridge,2024-04-15T12:35:00+01:00,MW,8.687999999999999
Wadebridge,2024-04-15T12:40:00+01:00,MW,8.558
Wadebridge,2024-04-15T12:45:00+01:00,MW,8.091
Wadebridge,2024-04-15T12:50:00+01:00,MW,8.378
Wadebridge,2024-04-15T12:55:00+01:00,MW,8.072000000000001
Wadebridge,2024-04-15T13:00:00+01:00,MW,7.816000000000001
Wadebridge,2024-04-15T13:05:00+01:00,MW,7.6499999999999995
Wadebridge,2024-04-15T13:10:00+01:00,MW,8.583
Wadebridge,2024-04-15T13:15:00+01:00,MW,9.006
Wadebridge,2024-04-15T13:20:00+01:00,MW,8.869
Wadebridge,2024-04-15T13:25:00+01:00,MW,8.465
Wadebridge,2024-04-15T13:30:00+01:00,MW,7.997
Wadebridge,2024-04-15T13:35:00+01:00,MW,8.329
Wadebridge,2024-04-15T13:40:00+01:00,MW,8.942
Wadebridge,2024-04-15T13:45:00+01:00,MW,8.392
Wadebridge,2024-04-15T13:50:00+01:00,MW,7.188
Wadebridge,2024-04-15T13:55:00+01:00,MW,8.289
Wadebridge,2024-04-15T14:00:00+01:00,MW,7.858
Wadebridge,2024-04-15T14:05:00+01:00,MW,6.869
Wadebridge,2024-04-15T14:10:00+01:00,MW,4.632
Wadebridge,2024-04-15T14:15:00+01:00,MW,3.209
Wadebridge,2024-04-15T14:20:00+01:00,MW,2.872
Wadebridge,2024-04-15T14:25:00+01:00,MW,4.689
Wadebridge,2024-04-15T14:30:00+01:00,MW,6.4
Wadebridge,2024-04-15T14:35:00+01:00,MW,7.5729999999999995
Wadebridge,2024-04-15T14:40:00+01:00,MW,8.266
Wadebridge,2024-04-15T14:45:00+01:00,MW,7.509
Wadebridge,2024-04-15T14:50:00+01:00,MW,8.423
Wadebridge,2024-04-15T14:55:00+01:00,MW,8.293000000000001
Wadebridge,2024-04-15T15:00:00+01:00,MW,8.372
Wadebridge,2024-04-15T15:05:00+01:00,MW,8.485999999999999
Wadebridge,2024-04-15T15:10:00+01:00,MW,8.126999999999999
Wadebridge,2024-04-15T15:15:00+01:00,MW,7.803
Wadebridge,2024-04-15T15:20:00+01:00,MW,7.269
Wadebridge,2024-04-15T15:25:00+01:00,MW,7.184
Wadebridge,2024-04-15T15:30:00+01:00,MW,7.507
Wadebridge,2024-04-15T15:35:00+01:00,MW,7.3020000000000005
Wadebridge,2024-04-15T15:40:00+01:00,MW,6.3309999999999995
Wadebridge,2024-04-15T15:45:00+01:00,MW,6.0889999999999995
Wadebridge,2024-04-15T15:50:00+01:00,MW,5.821
Wadebridge,2024-04-15T15:55:00+01:00,MW,6.332
Wadebridge,2024-04-15T16:00:00+01:00,MW,5.992999999999999
Wadebridge,2024-04-15T16:05:00+01:00,MW,5.340000000000001
Wadebridge,2024-04-15T16:10:00+01:00,MW,5.531
Wadebridge,2024-04-15T16:15:00+01:00,MW,5.390000000000001
Wadebridge,2024-04-15T16:20:00+01:00,MW,5.272
Wadebridge,2024-04-15T16:25:00+01:00,MW,5.527
Wadebridge,2024-04-15T16:30:00+01:00,MW,5.477
Wadebridge,2024-04-15T16:35:00+01:00,MW,5.29
Wadebridge,2024-04-15T16:40:00+01:00,MW,4.9990000000000006
Wadebridge,2024-04-15T16:45:00+01:00,MW,4.6209999999999996
Wadebridge,2024-04-15T16:50:00+01:00,MW,4.426
Wadebridge,2024-04-15T16:55:00+01:00,MW,4.208
Wadebridge,2024-04-15T17:00:00+01:00,MW,4.178
Wadebridge,2024-04-15T17:05:00+01:00,MW,4.944000000000001
Wadebridge,2024-04-15T17:10:00+01:00,MW,4.953
Wadebridge,2024-04-15T17:15:00+01:00,MW,5.128
Wadebridge,2024-04-15T17:20:00+01:00,MW,5.0969999999999995
Wadebridge,2024-04-15T17:25:00+01:00,MW,4.187
Wadebridge,2024-04-15T17:30:00+01:00,MW,4.385999999999999
Wadebridge,2024-04-15T17:35:00+01:00,MW,4.438000000000001
Wadebridge,2024-04-15T17:40:00+01:00,MW,4.162
Wadebridge,2024-04-15T17:45:00+01:00,MW,3.7889999999999997
Wadebridge,2024-04-15T17:50:00+01:00,MW,3.591
Wadebridge,2024-04-15T17:55:00+01:00,MW,3.5500000000000003
Wadebridge,2024-04-15T18:00:00+01:00,MW,3.1430000000000007
Wadebridge,2024-04-15T18:05:00+01:00,MW,2.3600000000000003
Wadebridge,2024-04-15T18:10:00+01:00,MW,2.1180000000000003
Wadebridge,2024-04-15T18:15:00+01:00,MW,2.2669999999999995
Wadebridge,2024-04-15T18:20:00+01:00,MW,2.4210000000000003
Wadebridge,2024-04-15T18:25:00+01:00,MW,2.239
Wadebridge,2024-04-15T18:30:00+01:00,MW,2.5300000000000002
Wadebridge,2024-04-15T18:35:00+01:00,MW,2.628
Wadebridge,2024-04-15T18:40:00+01:00,MW,2.2860000000000005
Wadebridge,2024-04-15T18:45:00+01:00,MW,1.9640000000000002
Wadebridge,2024-04-15T18:50:00+01:00,MW,2.1849999999999996
Wadebridge,2024-04-15T18:55:00+01:00,MW,2.13
Wadebridge,2024-04-15T19:00:00+01:00,MW,1.835
Wadebridge,2024-04-15T19:05:00+01:00,MW,1.605
Wadebridge,2024-04-15T19:10:00+01:00,MW,1.0679999999999996
Wadebridge,2024-04-15T19:15:00+01:00,MW,1.2199999999999998
Wadebridge,2024-04-15T19:20:00+01:00,MW,1.2320000000000002
Wadebridge,2024-04-15T19:25:00+01:00,MW,1.282
Wadebridge,2024-04-15T19:30:00+01:00,MW,1.0150000000000001
Wadebridge,2024-04-15T19:35:00+01:00,MW,1.039
Wadebridge,2024-04-15T19:40:00+01:00,MW,1.273
Wadebridge,2024-04-15T19:45:00+01:00,MW,1.2509999999999997
Wadebridge,2024-04-15T19:50:00+01:00,MW,1.1130000000000004
Wadebridge,2024-04-15T19:55:00+01:00,MW,1.3670000000000002
Wadebridge,2024-04-15T20:00:00+01:00,MW,1.2229999999999999
Wadebridge,2024-04-15T20:05:00+01:00,MW,1.1139999999999997
Wadebridge,2024-04-15T20:10:00+01:00,MW,1.1290000000000004
Wadebridge,2024-04-15T20:15:00+01:00,MW,1.1579999999999997
Wadebridge,2024-04-15T20:20:00+01:00,MW,1.1940000000000002
Wadebridge,2024-04-15T20:25:00+01:00,MW,1.1599999999999995
Wadebridge,2024-04-15T20:30:00+01:00,MW,0.9440000000000004
Wadebridge,2024-04-15T20:35:00+01:00,MW,1.051
Wadebridge,2024-04-15T20:40:00+01:00,MW,1.0830000000000002
Wadebridge,2024-04-15T20:45:00+01:00,MW,1.2210000000000003
Wadebridge,2024-04-15T20:50:00+01:00,MW,1.289
Wadebridge,2024-04-15T20:55:00+01:00,MW,1.3650000000000002
Wadebridge,2024-04-15T21:00:00+01:00,MW,1.3819999999999997
Wadebridge,2024-04-15T21:05:00+01:00,MW,1.3850000000000002
Wadebridge,2024-04-15T21:10:00+01:00,MW,1.3679999999999997
Wadebridge,2024-04-15T21:15:00+01:00,MW,1.5049999999999997
Wadebridge,2024-04-15T21:20:00+01:00,MW,1.4899999999999998
Wadebridge,2024-04-15T21:25:00+01:00,MW,1.4949999999999997
Wadebridge,2024-04-15T21:30:00+01:00,MW,1.627
Wadebridge,2024-04-15T21:35:00+01:00,MW,1.6739999999999997
Wadebridge,2024-04-15T21:40:00+01:00,MW,1.6219999999999999
Wadebridge,2024-04-15T21:45:00+01:00,MW,1.718
Wadebridge,2024-04-15T21:50:00+01:00,MW,1.7890000000000004
Wadebridge,2024-04-15T21:55:00+01:00,MW,1.9490000000000003
Wadebridge,2024-04-15T22:00:00+01:00,MW,2.178
Wadebridge,2024-04-15T22:05:00+01:00,MW,2.1199999999999997
Wadebridge,2024-04-15T22:10:00+01:00,MW,2.146
Wadebridge,2024-04-15T22:15:00+01:00,MW,2.1580000000000004
Wadebridge,2024-04-15T22:20:00+01:00,MW,2.239
Wadebridge,2024-04-15T22:25:00+01:00,MW,2.367
Wadebridge,2024-04-15T22:30:00+01:00,MW,2.4989999999999997
Wadebridge,2024-04-15T22:35:00+01:00,MW,2.471
Wadebridge,2024-04-15T22:40:00+01:00,MW,2.4909999999999997
Wadebridge,2024-04-15T22:45:00+01:00,MW,2.509
Wadebridge,2024-04-15T22:50:00+01:00,MW,2.678
Wadebridge,2024-04-15T22:55:00+01:00,MW,2.6340000000000003
Wadebridge,2024-04-15T23:00:00+01:00,MW,2.7299999999999995
Wadebridge,2024-04-15T23:05:00+01:00,MW,2.762
Wadebridge,2024-04-15T23:10:00+01:00,MW,2.905
Wadebridge,2024-04-15T23:15:00+01:00,MW,2.932
Wadebridge,2024-04-15T23:20:00+01:00,MW,2.9030000000000005
Wadebridge,2024-04-15T23:25:00+01:00,MW,2.984
Wadebridge,2024-04-15T23:30:00+01:00,MW,3.0269999999999997
Wadebridge,2024-04-15T23:35:00+01:00,MW,2.976
Wadebridge,2024-04-15T23:40:00+01:00,MW,2.901
Wadebridge,2024-04-15T23:45:00+01:00,MW,2.939
Wadebridge,2024-04-15T23:50:00+01:00,MW,3.028
Wadebridge,2024-04-15T23:55:00+01:00,MW,3.0489999999999995
Wadebridge,2024-04-16T00:00:00+01:00,MW,3.0810000000000004
